This demonstration page uses our WeatherBlox Daily Observations layout. Learn more.

Left ArrowRight Arrow

Hourly Observations for December 30, 2020

Temp ( °F °C ) Dew Point ( °F °C ) Humidity (%) Winds ( mph kmh ) Pressure ( in mb ) Visibility ( mi km ) Precip ( " mm )
12:53 am 00:53 Clear 34 1.1 21 -6.1 59 59 VRB 6 9 30.22 1024 10 16 0.00 0.00
1:53 am 01:53 Clear 33 0.6 22 -5.6 64 64 SSE 5 7 30.20 1023 10 16 0.00 0.00
2:53 am 02:53 Clear 34 1.1 22 -5.6 61 61 VRB 5 7 30.17 1022 10 16 0.00 0.00
3:53 am 03:53 Clear 34 1.1 22 -5.6 61 61 VRB 3 6 30.16 1021 10 16 0.00 0.00
4:53 am 04:53 Cloudy 35 1.7 23 -5 61 61 ESE 3 6 30.13 1020 10 16 0.00 0.00
5:53 am 05:53 Mostly Clear 34 1.1 24 -4.4 67 67 ESE 3 6 30.11 1020 10 16 0.00 0.00
6:53 am 06:53 Clear 36 2.2 26 -3.3 67 67 VRB 5 7 30.09 1019 10 16 0.00 0.00
7:53 am 07:53 Mostly Cloudy 37 2.8 29 -1.7 73 73 Calm 30.09 1019 10 16 0.00 0.00
8:53 am 08:53 Cloudy 41 5 30 -1.1 65 65 VRB 3 6 30.08 1019 10 16 0.00 0.00
9:53 am 09:53 Mostly Cloudy 44 6.7 31 -0.6 60 60 Calm 30.07 1018 10 16 0.00 0.00
10:53 am 10:53 Cloudy 50 10 31 -0.6 48 48 Calm 30.06 1018 10 16 0.00 0.00
11:53 am 11:53 Cloudy 54 12.2 31 -0.6 42 42 SSW 7 11 30.01 1016 10 16 0.00 0.00
12:53 pm 12:53 Cloudy with Light Rain 52 11.1 31 -0.6 45 45 WSW 6 9 30.00 1016 10 16 0.00 0.00
1:53 pm 13:53 Cloudy with Light Rain 50 10 31 -0.6 48 48 Calm 29.99 1016 3 5 0.06 1.52
2:07 pm 14:07 Cloudy with Light Rain 50 10 31 -0.6 48 48 SSW 5 7 29.99 1016 3 5 0.02 0.51
2:11 pm 14:11 Cloudy with Rain 50 10 31 -0.6 48 48 S 3 6 29.98 1015 2 3 0.03 0.76
2:16 pm 14:16 Cloudy with Rain 50 10 31 -0.6 48 48 S 5 7 29.98 1015 2 3 0.04 1.02
2:22 pm 14:22 Cloudy with Light Rain 50 10 31 -0.6 48 48 SSW 3 6 29.98 1015 3 5 0.05 1.27
2:34 pm 14:34 Cloudy with Light Rain 50 10 31 -0.6 48 48 SSW 3 6 29.97 1015 5 8 0.05 1.27
2:53 pm 14:53 Cloudy with Light Rain 50 10 31 -0.6 48 48 SSW 3 6 29.97 1015 5 8 0.06 1.52
3:06 pm 15:06 Cloudy with Light Rain 50 10 31 -0.6 48 48 VRB 3 6 29.96 1015 4 6 0.00 0.00
3:18 pm 15:18 Cloudy with Light Rain 50 10 31 -0.6 48 48 SSW 3 6 29.96 1015 2 3 0.01 0.25
3:53 pm 15:53 Cloudy with Light Rain 50 10 30 -1.1 46 46 VRB 5 7 29.95 1014 2 3 0.04 1.02
3:59 pm 15:59 Cloudy with Light Rain 50 10 30 -1.1 46 46 SSW 5 7 29.96 1015 3 5 0.00 0.00
4:06 pm 16:06 Cloudy with Light Rain 50 10 30 -1.1 46 46 VRB 5 7 29.95 1014 3 5 0.00 0.00
4:27 pm 16:27 Cloudy with Light Rain 50 10 30 -1.1 46 46 SW 7 11 29.96 1015 4 6 0.01 0.25
4:46 pm 16:46 Cloudy with Light Rain 50 10 30 -1.1 46 46 VRB 7 11 29.95 1014 3 5 0.03 0.76
4:53 pm 16:53 Cloudy with Light Rain 50 10 30 -1.1 46 46 SW 6 9 29.96 1014 5 8 0.03 0.76
5:50 pm 17:50 Cloudy with Light Rain 50 10 30 -1 47 47 SW 6 9 29.94 1014 4 6 0.05 1.27
5:53 pm 17:53 Cloudy with Light Rain 50 10 30 -1.1 46 46 VRB 3 6 29.94 1014 4 6 0.06 1.52
6:23 pm 18:23 Cloudy with Light Rain 50 10 32 0 50 50 W 5 7 29.94 1014 5 8 0.02 0.51
6:39 pm 18:39 Cloudy with Rain 50 10 32 0 50 50 W 7 11 29.97 1015 2 3 0.06 1.52
6:53 pm 18:53 Cloudy with Rain 50 10 31 -0.6 48 48 W 8 13 29.97 1015 2 3 0.11 2.79
7:03 pm 19:03 Cloudy with Heavy Rain 43 6.1 31 -0.6 63 63 NW 25 41 30.01 1016 3 5 0.05 1.27
7:13 pm 19:13 Cloudy with Light Rain 41 5 31 -0.6 67 67 NW 17 28 30.01 1016 7 11 0.06 1.52
7:53 pm 19:53 Cloudy with Light Rain 39 3.9 31 -0.6 73 73 NW 12 19 30.03 1017 8 13 0.09 2.29
8:46 pm 20:46 Cloudy with Light Rain 37 2.8 32 0 82 82 WNW 9 15 30.08 1019 7 11 0.06 1.52
8:53 pm 20:53 Cloudy with Light Rain 37 2.8 32 0 82 82 NW 8 13 30.06 1018 7 11 0.07 1.78
9:04 pm 21:04 Cloudy with Light Rain 37 2.8 32 0 82 82 NW 8 13 30.07 1018 5 8 0.02 0.51
9:24 pm 21:24 Cloudy with Light Rain 37 2.8 32 0 82 82 W 6 9 30.09 1019 7 11 0.03 0.76
9:48 pm 21:48 Cloudy with Light Rain 36 2 34 1 93 93 WNW 12 19 30.10 1019 7 11 0.06 1.52
9:53 pm 21:53 Cloudy with Light Rain 36 2.2 33 0.6 89 89 WNW 9 15 30.07 1018 8 13 0.06 1.52
10:53 pm 22:53 Cloudy with Light Rain 35 1.7 32 0 89 89 NW 7 11 30.09 1019 6 10 0.07 1.78
11:53 pm 23:53 Cloudy with Rain 34 1.1 29 -1.7 82 82 NW 6 9 30.11 1020 6 10 0.07 1.78

Powered by AerisWeather